CAPE
327 255 7 0 0 0 0 0 1 0 0 18 47 50 15 0 0 0 60 26 164 168 157 205 147 96 75 48 36 42 222 339 355
82 134 2 0 0 0 0 0 0 0 0 4 0 21 0 0 0 0 0 1 6 8 50 79 55 16 6 4 2 4 5 5 39
123 61 9 0 0 0 0 0 0 0 0 0 0 23 0 0 0 0 0 19 5 3 3 3 4 3 6 4 3 6 5 4 4
140 134 63 4 0 0 0 0 0 0 0 0 0 11 0 0 0 0 0 2 2 2 3 4 3 4 3 3 4 4 4 4 4
349 135 130 101 102 77 0 0 0 0 0 0 0 0 0 0 0 0 0 0 1 1 2 2 0 2 1 1 2 2 3 3 3
125 51 84 119 143 84 14 0 7 0 0 0 0 0 0 0 0 0 29 0 1 0 1 1 0 0 1 1 2 1 3 3 3
47 70 82 131 101 106 66 33 36 0 0 0 0 0 0 0 0 0 2 0 0 0 0 0 0 0 0 1 1 1 1 2 2
6 4 53 26 29 4 29 24 0 0 0 0 0 0 0 0 0 0 37 0 0 0 0 0 0 0 0 0 0 1 1 1 2
0 0 0 3 0 0 0 0 0 0 0 0 0 0 0 0 0 0 0 18 0 0 0 0 0 1 1 0 0 0 0 0 0
0 0 0 0 0 0 0 0 0 0 0 0 0 0 0 0 0 0 0 11 0 0 0 0 0 1 1 0 0 1 0 0 0
0 0 0 0 0 0 0 0 0 0 0 0 0 0 0 0 0 0 0 0 0 0 0 0 0 1 2 1 0 0 0 0 0
0 0 0 0 0 0 0 0 0 0 0 0 0 0 0 0 0 0 0 0 0 0 0 0 1 1 3 2 0 0 0 0 0
0 0 0 0 0 0 0 0 0 0 0 0 0 0 0 0 0 0 0 0 0 0 0 0 0 2 3 5 1 0 0 0 0
0 0 0 0 0 0 0 0 0 0 0 0 0 0 0 0 0 0 0 0 0 0 0 0 0 0 1 5 11 3 0 0 0
0 0 0 0 0 0 0 0 0 0 0 0 0 0 0 0 0 0 0 0 0 0 0 0 0 0 0 0 7 10 1 0 0
0 0 0 0 0 0 0 0 0 0 0 0 0 0 0 0 0 0 0 0 0 0 0 0 0 0 0 0 0 0 10 6 0
0 0 0 0 0 0 0 0 0 0 0 0 0 0 0 0 0 0 0 0 0 0 0 0 0 0 0 0 0 0 1 7 2
0 0 0 0 0 0 0 0 0 0 0 0 0 0 0 0 0 0 0 0 0 0 0 0 0 0 0 0 0 0 0 0 3
0 0 0 0 0 0 0 0 0 0 0 0 0 0 0 0 0 0 0 0 0 0 0 0 0 0 0 0 0 0 0 0 0
0 0 0 0 0 0 0 0 0 0 0 0 0 0 0 0 0 0 0 0 0 0 0 0 0 0 0 0 0 0 0 1 15
CIN
-25 -35 -0 -0 -0 -0 -0 -0 -0 -0 -0 -0 -50 -44 -23 -0 -0 -0 -39 -48 -0 -0 -0 -0 -1 -7 -14 -41 -56 -55 -6 -0 -0
-84 -50 -0 -0 -0 -0 -0 -0 -0 -0 -0 -6 -0 -106 -0 -0 -0 -0 -0 -4 -0 -0 -23 -13 -39 -3 -0 -0 -0 -0 -0 -0 -69
-83 -48 -22 -0 -0 -0 -0 -0 -0 -0 -0 -0 -0 -105 -0 -0 -0 -0 -0 -27 -0 -0 -0 -0 -0 -0 -0 -0 -0 -0 -0 -0 -0
-86 -75 -99 -20 -0 -0 -0 -0 -0 -0 -0 -0 -0 -49 -0 -0 -0 -0 -0 -0 -0 -0 -0 -0 -0 -0 -0 -0 -0 -0 -0 -0 -0
-79 -96 -77 -67 -58 -72 -0 -0 -0 -0 -0 -0 -0 -0 -0 -0 -0 -0 -0 -0 -0 -0 -0 -0 -0 -0 -0 -0 -0 -0 -0 -0 -0
-143 -167 -112 -76 -60 -78 -81 -0 -49 -0 -0 -0 -0 -0 -0 -0 -0 -0 -65 -0 -0 -0 -0 -0 -0 -0 -0 -0 -0 -0 -0 -0 -0
-231 -177 -145 -98 -99 -89 -115 -152 -148 -0 -0 -0 -0 -0 -0 -0 -0 -0 -8 -0 -0 -0 -0 -0 -0 -0 -0 -0 -0 -0 -0 -0 -0
-297 -38 -210 -213 -201 -28 -195 -199 -0 -0 -0 -0 -0 -0 -0 -0 -0 -0 -92 -0 -0 -0 -0 -0 -0 -0 -0 -0 -0 -0 -0 -0 -0
-0 -0 -0 -301 -0 -0 -0 -0 -0 -0 -0 -0 -0 -0 -0 -0 -0 -0 -0 -114 -0 -0 -0 -0 -0 -0 -0 -0 -0 -0 -0 -0 -0
-0 -0 -0 -0 -0 -0 -0 -0 -0 -0 -0 -0 -0 -0 -0 -0 -0 -0 -0 -78 -0 -0 -0 -0 -0 -0 -0 -0 -0 -0 -0 -0 -0
-0 -0 -0 -0 -0 -0 -0 -0 -0 -0 -0 -0 -0 -0 -0 -0 -0 -0 -0 -0 -0 -0 -0 -0 -0 -0 -0 -0 -0 -0 -0 -0 -0
-0 -0 -0 -0 -0 -0 -0 -0 -0 -0 -0 -0 -0 -0 -0 -0 -0 -0 -0 -0 -0 -0 -0 -0 -0 -0 -0 -0 -0 -0 -0 -0 -0
-0 -0 -0 -0 -0 -0 -0 -0 -0 -0 -0 -0 -0 -0 -0 -0 -0 -0 -0 -0 -0 -0 -0 -0 -0 -0 -0 -0 -0 -0 -0 -0 -0
-0 -0 -0 -0 -0 -0 -0 -0 -0 -0 -0 -0 -0 -0 -0 -0 -0 -0 -0 -0 -0 -0 -0 -0 -0 -0 -0 -0 -0 -0 -0 -0 -0
-0 -0 -0 -0 -0 -0 -0 -0 -0 -0 -0 -0 -0 -0 -0 -0 -0 -0 -0 -0 -0 -0 -0 -0 -0 -0 -0 -0 -0 -0 -0 -0 -0
-0 -0 -0 -0 -0 -0 -0 -0 -0 -0 -0 -0 -0 -0 -0 -0 -0 -0 -0 -0 -0 -0 -0 -0 -0 -0 -0 -0 -0 -0 -0 -0 -0
-0 -0 -0 -0 -0 -0 -0 -0 -0 -0 -0 -0 -0 -0 -0 -0 -0 -0 -0 -0 -0 -0 -0 -0 -0 -0 -0 -0 -0 -0 -0 -0 -0
-0 -0 -0 -0 -0 -0 -0 -0 -0 -0 -0 -0 -0 -0 -0 -0 -0 -0 -0 -0 -0 -0 -0 -0 -0 -0 -0 -0 -0 -0 -0 -0 -1
-0 -0 -0 -0 -0 -0 -0 -0 -0 -0 -0 -0 -0 -0 -0 -0 -0 -0 -0 -0 -0 -0 -0 -0 -0 -0 -0 -0 -0 -0 -0 -0 -0
-1 -0 -0 -0 -0 -0 -0 -0 -0 -0 -0 -0 -0 -0 -0 -0 -0 -0 -0 -0 -0 -0 -0 -0 -0 -0 -0 -0 -0 -0 -0 -0 -0
Wind_Speed
12 16 15 14 13 13 14 13 13 11 11 11 13 12 12 9 4 6 7 5 13 15 13 12 14 13 14 14 14 13 15 16 16
12 17 15 15 14 13 13 12 11 10 10 11 11 12 10 5 5 6 6 6 8 9 11 13 12 12 9 9 9 9 9 9 11
13 16 15 15 14 13 12 11 9 8 9 10 9 11 8 5 6 6 4 8 9 9 8 8 8 8 10 10 10 10 11 10 11
15 15 14 14 13 12 11 10 8 7 8 9 7 10 9 5 4 4 3 6 8 8 9 8 8 8 8 9 9 9 10 10 10
13 12 12 12 11 10 10 9 7 6 7 7 8 9 8 4 4 3 2 7 7 7 7 7 7 7 7 7 8 9 9 10 10
7 6 9 9 10 9 8 7 5 5 5 6 7 6 3 3 2 2 6 7 6 6 6 6 6 6 6 7 7 8 9 9 9
5 6 9 8 7 7 6 5 3 4 2 2 4 2 3 2 2 1 6 7 6 6 5 5 5 5 6 6 6 7 7 8 8
3 3 3 3 4 2 2 2 1 0 0 2 2 2 3 1 1 3 6 7 6 6 5 5 4 5 5 6 6 6 6 7 7
4 4 4 4 3 4 3 1 2 2 2 1 2 1 2 2 2 3 7 8 7 6 6 5 4 4 4 4 5 7 6 6 5
4 3 3 4 3 3 3 3 3 3 3 3 3 4 4 5 3 3 7 8 8 7 7 6 6 6 4 4 4 4 5 5 5
4 4 4 4 4 4 4 4 4 4 3 5 4 5 4 5 5 4 4 9 9 9 9 8 8 7 6 5 4 3 3 3 3
6 4 4 4 4 5 3 3 2 3 3 5 4 3 5 5 5 4 4 4 9 10 10 10 9 8 8 7 5 4 3 2 1
6 5 5 5 4 4 3 3 3 4 3 3 4 3 3 5 5 4 4 4 3 7 10 11 11 11 10 9 7 6 4 3 2
7 6 5 5 4 4 4 3 3 3 3 4 4 4 4 5 3 6 6 6 5 4 6 9 10 10 12 11 10 8 5 4 3
8 5 5 5 4 4 3 4 3 3 4 3 3 3 4 3 4 5 4 5 6 5 6 4 4 9 11 13 12 10 8 6 4
9 6 6 5 7 7 7 4 5 3 2 2 2 2 5 5 5 4 4 5 6 6 5 4 3 4 10 12 13 12 10 8 5
8 8 8 7 4 6 6 5 3 3 5 4 2 3 4 3 5 4 4 5 3 4 5 5 5 5 4 6 8 7 9 6 4
7 7 7 7 6 7 6 7 7 4 4 5 4 1 5 2 2 2 3 3 3 3 5 6 5 5 3 3 3 10 10 5 7
7 6 6 6 5 5 6 6 5 4 5 2 5 1 3 4 3 0 0 3 5 6 5 5 5 5 4 7 11 14 11 6 7
6 6 6 6 5 6 6 5 7 7 6 5 3 4 2 1 4 9 5 1 2 3 2 3 3 5 6 5 7 10 7 10 11
Wind_Direction
130 134 127 125 127 122 123 124 116 110 99 90 99 97 105 99 74 71 86 75 78 88 82 72 72 70 63 59 49 48 65 62 60
136 138 135 134 133 129 128 126 123 115 101 98 99 104 104 105 83 74 63 64 83 80 73 64 59 61 64 73 76 75 70 61 62
149 145 141 141 142 138 134 134 130 119 109 97 95 118 112 93 88 83 75 97 99 92 91 83 82 83 83 82 81 81 81 76 73
156 148 147 149 148 145 142 141 141 133 110 93 110 126 119 108 104 97 82 100 105 105 101 95 93 89 87 88 89 87 87 84 81
152 145 155 152 152 150 153 151 144 132 116 94 100 119 110 108 108 102 129 115 112 107 108 103 97 93 91 92 95 97 94 93 90
132 135 147 152 155 158 163 160 141 122 115 104 98 102 113 118 117 134 139 129 121 121 119 112 105 103 98 96 96 96 98 96 94
123 140 145 153 155 160 169 170 151 110 89 77 77 80 152 147 156 190 159 145 142 137 134 126 117 116 112 106 101 95 92 91 93
129 129 135 138 147 140 142 135 103 186 44 102 106 105 159 168 193 234 180 164 160 155 153 146 144 146 138 133 119 105 101 96 93
154 161 168 163 170 171 167 194 203 222 248 190 133 205 188 198 206 246 205 181 178 176 171 172 177 173 161 153 136 130 115 106 99
165 186 171 168 171 180 191 202 211 233 242 248 188 205 228 216 199 208 229 197 189 192 195 197 196 191 194 176 161 147 130 122 112
180 185 192 187 184 188 189 199 213 234 232 253 242 238 222 212 204 200 222 206 196 202 209 211 214 211 203 192 189 172 150 133 113
182 184 193 202 192 196 197 217 223 247 246 257 269 244 231 211 209 203 210 221 209 208 219 223 223 221 216 209 204 196 190 177 157
181 186 204 194 187 187 187 189 225 238 220 261 266 255 222 223 217 211 209 215 213 223 229 227 229 227 226 221 216 214 215 215 233
185 192 206 185 186 191 188 191 185 215 230 236 236 245 229 228 206 221 215 213 206 212 237 235 226 228 235 234 226 218 214 222 254
187 192 196 183 180 197 177 191 196 198 218 233 243 236 247 239 226 229 227 216 211 209 215 236 235 224 227 239 242 229 210 211 241
189 197 197 188 200 202 194 174 198 217 183 98 315 294 238 241 232 223 222 219 217 209 210 212 219 238 223 232 238 247 233 213 234
189 194 203 195 187 194 185 171 180 203 181 157 91 312 314 277 234 226 223 229 217 221 218 210 215 218 221 214 229 261 246 226 233
195 196 202 198 192 205 190 186 187 199 204 206 153 113 233 342 334 298 244 232 211 228 222 222 219 210 206 229 107 87 74 63 29
200 206 199 215 195 204 207 194 198 158 213 195 238 267 139 201 309 267 223 224 214 206 206 206 205 191 162 159 140 128 146 149 238
225 217 200 205 198 218 194 178 204 208 220 198 158 200 162 178 209 264 243 298 353 346 320 224 205 171 153 154 171 168 195 234 223